Regional Weather Roundup
Issued by NWS

Home | Current Version | Previous Version | Graphics & Text | Print | Product List | Glossary Off
Versions: 1 2 3 4 5 6 7 8 9 10 11 12 13 14 15 16 17 18 19 20 21 22 23 24 25 26 27 28 29 30 31 32 33 34 35 36 37 38 39 40 41 42 43 44 45 46 47 48 49 50

000
ASUS43 KLSX 272007
RWRMO

WEATHER SUMMARY FOR MISSOURI
NATIONAL WEATHER SERVICE SPRINGFIELD MO
300 PM CDT THU APR 27 2017

NOTE: "FAIR" INDICATES FEW OR NO CLOUDS BELOW 12,000 FEET WITH NO
       SIGNIFICANT WEATHER AND/OR OBSTRUCTIONS TO VISIBILITY.
       CURRENT SKY AND/OR WEATHER CONDITIONS ARE NOT AVAILABLE FOR
       CHILLICOTHE AND FARMINGTON.

MOZ001>031-035>038-043-044-053-054-272100-
...NORTHERN AND WESTERN MISSOURI...

CITY           SKY/WX    TMP DP  RH WIND       PRES   REMARKS
KANSAS CTY INT PTSUNNY   61  37  41 VRB7      29.72S
KANSAS C DTWN  SUNNY     61  38  42 CALM      29.72S
LEE`S SUMMIT   SUNNY     60  39  45 CALM      29.73F
ST JOSEPH      CLOUDY    62  38  40 W6        29.72S
CHILLICOTHE      N/A     60  40  47 VRB5      29.72F
KIRKSVILLE     PTSUNNY   55  41  59 SW12G18   29.73F

$$
MOZ066>068-077>081-088>096-101>105-272100-
...SOUTHWEST MISSOURI...

CITY           SKY/WX    TMP DP  RH WIND       PRES   REMARKS
SPRINGFIELD    SUNNY     62  43  49 SW7       29.76F
JOPLIN         SUNNY     64  42  44 S6        29.75F
BRANSON        PTSUNNY   63  39  42 W6        29.79S

$$
MOZ032>034-039>042-045>050-055>058-069>072-272100-
...CENTRAL MISSOURI...

CITY           SKY/WX    TMP DP  RH WIND       PRES   REMARKS
COLUMBIA       MOSUNNY   57  42  57 S8        29.76F
JEFFERSON CITY SUNNY     59  41  51 SW9       29.77F
ROLLA          SUNNY     57  42  57 VRB5      29.76F
SEDALIA        SUNNY     60  47  61 SE8       29.75F
WHITEMAN AFB   MOSUNNY   58  43  56 S9        29.73F
OSAGE BEACH    SUNNY     59  41  51 CALM      29.77F

$$
MOZ051-052-059>065-272100-
...EAST CENTRAL MISSOURI...

CITY           SKY/WX    TMP DP  RH WIND       PRES   REMARKS
ST LOUIS INTL  MOSUNNY   58  41  53 SW12      29.79S
SPIRIT OF STL  MOSUNNY   57  43  59 W12G20    29.78S
ST CHARLES     MOSUNNY   56  42  59 NW10      29.78S

$$
MOZ072>076-082>087-097>100-106>115-272100-
...SOUTH CENTRAL AND SOUTHEAST MISSOURI...

CITY           SKY/WX    TMP DP  RH WIND       PRES   REMARKS
CAPE GIRARDEAU CLOUDY    58  47  66 SW8       29.82S
FARMINGTON     SUNNY     61  45  55 NW3       29.79S
POPLAR BLUFF   MOSUNNY   59  49  69 SW13      29.82R
WEST PLAINS    SUNNY     63  43  48 VRB3      29.79F

$$



USA.gov is the U.S. government's official web portal to all federal, state and local government web resources and services.